Crane Lake, MN

5:26 AM CST on December 10, 2016 (GMT -0600)
Crane Lake

Weather History for KCDD - April, 2013

Change the Weather History Date:

Saturday, April 13, 2013

  Actual Average Record
Temperature  
Mean Temperature 26 °F -  
Max Temperature 39 °F 46 °F 69 °F (2002)
Min Temperature 12 °F 25 °F 12 °F (2008)
Degree Days  
Heating Degree Days 38    
Moisture  
Dew Point 21 °F    
Average Humidity 85    
Maximum Humidity 100    
Minimum Humidity 64    
Precipitation  
Precipitation 0.01 in - - ()
Sea Level Pressure  
Sea Level Pressure 29.88 in    
Wind  
Wind Speed 2 mph (NNW)    
Max Wind Speed 7 mph    
Max Gust Speed -    
Visibility 7 miles    
Events Snow    
Averages and records for this station are not official NWS values.
T = Trace of Precipitation, MM = Missing Value Source: NWS Daily Summary

Daily Weather History Graph

Daily Weather History Graph

Search for Another Location

Airport or City:

Trip Planner

Search our weather history database for the weather conditions in past years. The results will help you decide how hot, cold, wet, or windy it might be!

Date:

Astronomy

Apr. 13, 2013 Rise Set
Actual Time 6:23 AM CDT 7:58 PM CDT
Civil Twilight 5:50 AM CDT 8:30 PM CDT
Nautical Twilight 5:11 AM CDT 9:10 PM CDT
Astronomical Twilight 4:27 AM CDT 9:54 PM CDT
Moon 8:02 AM CDT (4/13) 11:36 PM CDT (4/13)
Length of Visible Light 14h 40m
Length of Day
13h 34m
Waxing Crescent, 10% of the Moon is Illuminated
Apr 13
Waxing Crescent
Apr 18
First Quarter
Apr 25
Full
May 2
Last Quarter
May 9
New

Hourly Weather History & Observations

Time (CDT) Temp. Windchill Dew Point Humidity Pressure Visibility Wind Dir Wind Speed Gust Speed Precip Events Conditions
12:12 AM 21.2 °F 16.4 °F 19.4 °F 93% 29.87 in 1.5 mi NW 3.5 mph - N/A Snow Light Snow
12:32 AM 21.2 °F 16.4 °F 19.4 °F 93% 29.87 in 1.5 mi NNW 3.5 mph - N/A Snow Light Snow
12:52 AM 21.2 °F - 19.4 °F 93% 29.87 in 1.5 mi Calm Calm - N/A Snow Light Snow
1:12 AM 21.2 °F 16.4 °F 19.4 °F 93% 29.87 in 2.0 mi NW 3.5 mph - N/A Snow Light Snow
1:33 AM 21.2 °F - 19.4 °F 93% 29.86 in 3.0 mi Calm Calm - N/A Snow Light Snow
1:52 AM 21.2 °F 16.4 °F 19.4 °F 93% 29.86 in 1.2 mi NNW 3.5 mph - N/A Snow Light Snow
2:12 AM 21.2 °F - 19.4 °F 93% 29.86 in 1.2 mi Calm Calm - N/A Snow Light Snow
2:32 AM 21.2 °F 16.4 °F 19.4 °F 93% 29.85 in 1.2 mi NNW 3.5 mph - N/A Snow Light Snow
2:52 AM 19.4 °F - 17.6 °F 93% 29.85 in 2.0 mi Calm Calm - N/A Snow Light Snow
3:12 AM 17.6 °F 12.3 °F 17.6 °F 100% 29.84 in 2.5 mi NW 3.5 mph - N/A Snow Light Snow
3:33 AM 17.6 °F 12.3 °F 15.8 °F 93% 29.84 in 7.0 mi NNW 3.5 mph - N/A Snow Light Snow
3:52 AM 15.8 °F - 14.0 °F 93% 29.84 in 10.0 mi Calm Calm - 0.01 in   Overcast
4:13 AM 15.8 °F - 12.2 °F 86% 29.84 in 10.0 mi Calm Calm - N/A   Overcast
4:32 AM 15.8 °F - 14.0 °F 93% 29.84 in 10.0 mi Calm Calm - N/A Snow Light Snow
4:52 AM 15.8 °F - 14.0 °F 93% 29.85 in 7.0 mi Calm Calm - N/A Snow Light Snow
5:12 AM 15.8 °F - 12.2 °F 86% 29.85 in 10.0 mi Calm Calm - N/A Snow Light Snow
5:32 AM 15.8 °F - 14.0 °F 93% 29.85 in 5.0 mi Calm Calm - N/A Snow Light Snow
5:52 AM 17.6 °F - 15.8 °F 93% 29.85 in 4.0 mi Calm Calm - N/A Snow Light Snow
6:13 AM 19.4 °F - 17.6 °F 93% 29.85 in 1.8 mi Calm Calm - N/A Snow Light Snow
6:32 AM 19.4 °F - 17.6 °F 93% 29.85 in 1.8 mi Calm Calm - N/A Snow Light Snow
6:53 AM 19.4 °F - 17.6 °F 93% 29.85 in 2.5 mi Calm Calm - N/A Snow Light Snow
7:12 AM 19.4 °F - 19.4 °F 100% 29.85 in 5.0 mi Calm Calm - N/A Snow Light Snow
7:32 AM 19.4 °F - 19.4 °F 100% 29.86 in 10.0 mi Calm Calm - N/A Snow Light Snow
7:53 AM 21.2 °F - 19.4 °F 93% 29.86 in 7.0 mi Calm Calm - N/A Snow Light Snow
8:12 AM 23.0 °F 17.0 °F 21.2 °F 93% 29.86 in 5.0 mi North 4.6 mph - N/A Snow Light Snow
8:32 AM 23.0 °F 18.4 °F 21.2 °F 93% 29.86 in 4.0 mi NNW 3.5 mph - N/A Snow Light Snow
8:52 AM 24.8 °F - 21.2 °F 86% 29.86 in 5.0 mi Calm Calm - N/A Snow Light Snow
9:12 AM 24.8 °F 20.5 °F 21.2 °F 86% 29.86 in 10.0 mi North 3.5 mph - N/A   Overcast
9:32 AM 24.8 °F 20.5 °F 23.0 °F 93% 29.86 in 10.0 mi North 3.5 mph - N/A   Overcast
9:52 AM 26.6 °F 20.0 °F 23.0 °F 86% 29.86 in 10.0 mi North 5.8 mph - N/A Snow Light Snow
10:13 AM 26.6 °F - 23.0 °F 86% 29.86 in 7.0 mi Calm Calm - N/A   Overcast
10:32 AM 26.6 °F 21.2 °F 24.8 °F 93% 29.87 in 5.0 mi North 4.6 mph - N/A Snow Light Snow
10:52 AM 28.4 °F 23.3 °F 24.8 °F 86% 29.87 in 7.0 mi North 4.6 mph - N/A Snow Light Snow
11:12 AM 28.4 °F 24.6 °F 24.8 °F 86% 29.87 in 7.0 mi North 3.5 mph - N/A Snow Light Snow
11:32 AM 30.2 °F 23.4 °F 26.6 °F 86% 29.87 in 4.0 mi NNW 6.9 mph - N/A Snow Light Snow
11:52 AM 30.2 °F 26.7 °F 26.6 °F 86% 29.88 in 10.0 mi NNW 3.5 mph - N/A Snow Light Snow
12:12 PM 32.0 °F 27.5 °F 28.4 °F 87% 29.88 in 10.0 mi NNW 4.6 mph - N/A Snow Light Snow
12:32 PM 32.0 °F 27.5 °F 26.6 °F 80% 29.88 in 7.0 mi North 4.6 mph - N/A Snow Light Snow
12:52 PM 32.0 °F 27.5 °F 28.4 °F 87% 29.88 in 5.0 mi NW 4.6 mph - N/A Snow Light Snow
1:12 PM 33.8 °F 30.8 °F 28.4 °F 81% 29.88 in 4.0 mi NNW 3.5 mph - N/A Snow Light Snow
1:32 PM 33.8 °F 29.6 °F 30.2 °F 87% 29.88 in 4.0 mi NW 4.6 mph - N/A Snow Light Snow
1:52 PM 33.8 °F 29.6 °F 28.4 °F 81% 29.88 in 7.0 mi North 4.6 mph - N/A Snow Light Snow
2:13 PM 33.8 °F - 28.4 °F 81% 29.88 in 7.0 mi Calm Calm - N/A Snow Light Snow
2:32 PM 35.6 °F - 30.2 °F 81% 29.88 in 10.0 mi Calm Calm - N/A   Overcast
2:52 PM 35.6 °F 32.8 °F 32.0 °F 87% 29.89 in 10.0 mi NW 3.5 mph - N/A   Overcast
3:12 PM 35.6 °F 32.8 °F 30.2 °F 81% 29.89 in 4.0 mi NW 3.5 mph - N/A Snow Light Snow
3:32 PM 39.2 °F 35.9 °F 33.8 °F 81% 29.89 in 10.0 mi NW 4.6 mph - N/A   Overcast
3:53 PM 39.2 °F - 33.8 °F 81% 29.89 in 10.0 mi Calm Calm - N/A   Overcast
4:12 PM 35.6 °F 32.8 °F 28.4 °F 75% 29.89 in 10.0 mi NW 3.5 mph - N/A   Overcast
4:32 PM 37.4 °F 34.9 °F 28.4 °F 70% 29.89 in 10.0 mi NNW 3.5 mph - N/A   Overcast
4:52 PM 39.2 °F - 30.2 °F 70% 29.90 in 10.0 mi Calm Calm - N/A   Overcast
5:12 PM 37.4 °F - 26.6 °F 65% 29.90 in 10.0 mi Calm Calm - N/A   Overcast
5:32 PM 35.6 °F - 26.6 °F 70% 29.90 in 10.0 mi Calm Calm - N/A   Mostly Cloudy
5:52 PM 33.8 °F - 24.8 °F 70% 29.90 in 10.0 mi Calm Calm - N/A   Mostly Cloudy
6:12 PM 33.8 °F - 24.8 °F 70% 29.91 in 10.0 mi Calm Calm - N/A   Scattered Clouds
6:32 PM 33.8 °F - 24.8 °F 70% 29.91 in 10.0 mi Calm Calm - N/A   Scattered Clouds
7:12 PM 33.8 °F - 23.0 °F 65% 29.91 in 10.0 mi Calm Calm - N/A   Clear
7:32 PM 30.2 °F - 19.4 °F 64% 29.92 in 10.0 mi Calm Calm - N/A   Clear
7:53 PM 26.6 °F - 17.6 °F 69% 29.92 in 10.0 mi Calm Calm - N/A   Clear
8:13 PM 23.0 °F - 15.8 °F 74% 29.92 in 10.0 mi Calm Calm - N/A   Clear
8:32 PM 21.2 °F - 15.8 °F 80% 29.93 in 10.0 mi Calm Calm - N/A   Clear
8:52 PM 21.2 °F - 15.8 °F 80% 29.94 in 10.0 mi Calm Calm - N/A   Clear
9:12 PM 19.4 °F - 15.8 °F 86% 29.94 in 10.0 mi Calm Calm - N/A   Clear
9:52 PM 17.6 °F - 14.0 °F 86% 29.95 in 10.0 mi Calm Calm - N/A   Clear
10:12 PM 17.6 °F - 14.0 °F 86% 29.96 in 10.0 mi Calm Calm - N/A   Clear
10:32 PM 17.6 °F - 12.2 °F 79% 29.96 in 10.0 mi Calm Calm - N/A   Clear
10:52 PM 15.8 °F - 12.2 °F 86% 29.97 in 10.0 mi Calm Calm - N/A   Clear
11:12 PM 15.8 °F - 10.4 °F 79% 29.97 in 10.0 mi Calm Calm - N/A   Clear
11:32 PM 14.0 °F - 10.4 °F 86% 29.97 in 10.0 mi Calm Calm - N/A   Clear
11:52 PM 12.2 °F - 10.4 °F 92% 29.98 in 10.0 mi Calm Calm - N/A   Clear